Flag for U.S.A. Weather past 2 weeks in Glendale, California, U.S.A.

Now
89 °F

Sunny.


Feels Like: 88 °F
Forecast: 68 / 91 °F
Wind: 9 mph from Southwest

Location: Burbank-Glendale-Pasadena Airport

Current Time: Jun 30, 2015 at 12:55:47 PM

Latest Report: Jun 30, 2015 at 11:53 AM


Visibility: 10 mi

Pressure: 29.85 "Hg

Humidity: 34%

Dew point: 57 °F

Location of GlendaleLocation

Historic Weather in Glendale — Graph

°F

Glendale temperature yesterday

Maximum temperature yesterday: 97 °F (at 2:53 PM)
Minimum temperature yesterday: 73 °F (at 3:53 AM)
Average temperature yesterday: 81 °F

Past Weeks' High & Low Weather Summary

 TemperatureHumidityPressure
High97 °F (Jun 29, 2:53 PM)87% (Jun 17, 4:53 AM)29.99 "Hg (Jun 17, 4:53 AM)
Low61 °F (Jun 17, 4:53 AM)18% (Jun 19, 3:53 PM)29.75 "Hg (Jun 20, 2:53 AM)
Average77 °F51%29.86 "Hg
* Reported Jun 15 10:53 AM — Jun 30 10:53 AM, Glendale, Weather by CustomWeather, © 2015

Note: Actual official high and low records may vary slightly from our data, if they occured in-between our weather recording intervals... More about our weather records

Advertising

Glendale weather history for previous 24 hours

 ConditionsComfort  
Time TempWeatherWind HumidityBarometerVisibility
10:53 AM
Tue, Jun 30
87 °FSunny.8 mph35%29.86 "Hg10 mi
9:53 AM82 °FSunny.7 mph46%29.85 "Hg10 mi
8:53 AM78 °FSunny.3 mph50%29.87 "Hg10 mi
7:53 AM75 °FSunny.5 mph55%29.86 "Hg10 mi
6:53 AM73 °FSunny.No wind57%29.84 "Hg10 mi
5:53 AM72 °FClear.No wind59%29.83 "Hg10 mi
4:53 AM73 °FClear.No wind57%29.83 "Hg10 mi
3:53 AM72 °FClear.No wind59%29.83 "Hg10 mi
2:53 AM73 °FClear.6 mph57%29.83 "Hg10 mi
1:53 AM74 °FClear.No wind56%29.84 "Hg10 mi
12:53 AM74 °FClear.3 mph56%29.85 "Hg10 mi
11:53 PM
Mon, Jun 29
75 °FClear.7 mph54%29.87 "Hg10 mi
10:53 PM76 °FClear.7 mph50%29.87 "Hg10 mi
9:53 PM77 °FClear.6 mph50%29.86 "Hg10 mi
8:53 PM78 °FSunny.10 mph45%29.85 "Hg10 mi
7:53 PM82 °FSunny.10 mph43%29.82 "Hg10 mi
6:53 PM85 °FSunny.7 mph34%29.80 "Hg10 mi
5:53 PM87 °FSunny.10 mph32%29.81 "Hg10 mi
4:53 PM89 °FSunny.10 mph31%29.81 "Hg10 mi
3:53 PM95 °FSunny.9 mph27%29.81 "Hg10 mi
2:53 PM97 °FSunny.8 mph22%29.81 "Hg10 mi
1:53 PM95 °FSunny.10 mph28%29.83 "Hg10 mi
12:53 PM93 °FSunny.9 mph30%29.85 "Hg10 mi
Weather by CustomWeather, © 2015

See weather overviewHow to use our weather pages